2020-003F (45021 NORAD) Tracking and Keplerian Element Data

This shows tracking and keplerian element data for the satellite.

Feedback or suggestion? Click here.




ElementValue
Catalog45021
Name2020-003F
Epoch Orbit458
Epoch Day45.16626438
Epoch Year2020
RAAN113.7033
Inclination97.3669
Eccentricity0.0007647
Argument of Perigee173.9393
Mean Anonmoly186.194
Mean Motion15.2755563
Decay Rate1.655E-05
L11 45021U 20003F 20045.16626438 .00001655 00000-0 64125-4 0 9993
L22 45021 97.3669 113.7033 0007647 173.9393 186.1940 15.27555630 4586

Live tracking and technical data element details for 2020-003F (NORAD 45021). 2020-003F can be tracked NOW for your location showing map with azimuth and elevation plus other details from your city location.

Track the satellite on the map from your city or location and see movement details for azimuth, elevation, latitude, longitude, range, height, and movement on the map or in text.







IsCatalogInMostPopularTable: catalog: 45021, numindb: 35
Update: records affected: 1



GetName: 45021 2020-003F

Hit Count: updated at: Wed, 08 Jul 2020 05:33:04 GMT